[[{"header":{"parameterUnit":"m.s-1","parameterCategory":1,"la1":30.2991,"la2":30.254,"lo1":-89.0895,"lo2":-89.0444,"dy":0.0017,"dx":0.0017,"nx":28,"ny":28,"refTime":"2023-09-08T09:00:00:Z","depth":0,"parameterNumber":2,"parameterNumberName":"U-component_of_WINDS"},"data":[0,0,0,0,0,0,0,0,0,0,0,0,0,0,0,0,0,0,0,0,0,0,0,0,0,0,0,0,0,0,0,0,0,0,0,0,0,0,0,0,0,0,0,0,0,0,0,0,0,0,0,0,0,0,0,0,0,0,-1.221,-1.2211,0,-1.2216,-1.2216,-1.2216,-1.2212,-1.2212,-1.2212,-1.2212,-1.2218,-1.2218,-1.2219,0,0,0,0,0,0,0,0,0,0,0,0,0,-1.2197,-1.2197,-1.221,-1.2211,-1.2211,-1.2216,-1.2216,-1.2216,-1.2212,-1.2212,-1.2212,-1.2211,-1.2218,-1.2218,-1.2219,0,0,0,0,0,0,0,0,0,0,0,0,0,-1.2202,-1.2197,-1.221,-1.2209,-1.2209,-1.2216,-1.2216,-1.2216,-1.2212,-1.2212,-1.2212,-1.2211,-1.2218,-1.2218,-1.2219,-1.2227,0,0,-1.222,-1.2221,0,0,0,0,0,0,0,0,-1.2202,-1.2203,-1.2209,-1.2209,-1.2209,-1.2213,-1.2214,-1.222,-1.2212,-1.2211,-1.2212,-1.2211,-1.2217,-1.2217,-1.2219,-1.2228,-1.2228,-1.222,-1.2221,-1.2221,-1.2221,0,0,0,0,0,0,0,-1.2202,-1.2203,-1.2213,-1.2209,-1.2209,-1.2208,-1.2209,-1.2215,-1.2215,-1.2211,-1.2211,-1.2211,-1.2217,-1.2218,-1.2219,-1.2228,-1.222,-1.2221,-1.2221,-1.2221,-1.2243,-1.2243,0,0,0,0,0,0,-1.2201,-1.2202,-1.2212,-1.2213,-1.2205,-1.2209,-1.2209,-1.2212,-1.2215,-1.2215,-1.2212,-1.2211,-1.2218,-1.2218,-1.2219,-1.2229,-1.2221,-1.2221,-1.2222,-1.2243,-1.2243,-1.2243,0,0,0,0,0,0,-1.2201,-1.2202,-1.2212,-1.2207,-1.2209,-1.2209,-1.2212,-1.2212,-1.2214,-1.2216,-1.2216,-1.2213,-1.2218,-1.2219,-1.2225,-1.2229,-1.2222,-1.2222,-1.2242,-1.2243,-1.2243,-1.2248,0,0,0,0,0,0,-1.2201,-1.2202,-1.2206,-1.2208,-1.2209,-1.2218,-1.2213,-1.2213,-1.2215,-1.2214,-1.2217,-1.2218,-1.2217,-1.2224,-1.2226,-1.2229,-1.2223,-1.2242,-1.2242,-1.2243,-1.2247,-1.2248,-1.2249,0,0,0,0,0,-1.22,-1.2207,-1.2206,-1.2207,-1.2213,-1.2218,-1.2219,-1.2218,-1.2215,-1.2218,-1.2219,-1.2217,-1.2228,-1.2225,-1.2226,-1.223,-1.2242,-1.2242,-1.2243,-1.2247,-1.2248,-1.2249,0,0,0,0,0,0,-1.2206,-1.2207,-1.2206,-1.2214,-1.2216,-1.2217,-1.2222,-1.222,-1.2223,-1.2223,-1.2222,-1.2223,-1.2229,-1.2231,-1.2227,-1.2238,-1.2234,-1.2235,-1.2237,-1.2238,-1.2239,-1.2238,-1.2223,0,0,0,0,0,-1.2208,-1.2212,-1.2213,-1.222,-1.2221,-1.2221,-1.2223,-1.2222,-1.2225,-1.2226,-1.2227,-1.223,-1.2233,-1.2236,-1.224,-1.2248,-1.2248,-1.2251,-1.2252,-1.2253,-1.2253,-1.2256,-1.2258,-1.2245,-1.2245,-1.2245,0,0,-1.2213,-1.2214,-1.2216,-1.2221,-1.2222,-1.2226,-1.2222,-1.2226,-1.2229,-1.2227,-1.2232,-1.2233,-1.2236,-1.2243,-1.2246,-1.2244,-1.2257,-1.2253,-1.2254,-1.2254,-1.2257,-1.2258,-1.2259,-1.2246,-1.2245,-1.2245,0,0,-1.2223,-1.2224,-1.2229,-1.2231,-1.2233,-1.2233,-1.2234,-1.2236,-1.2236,-1.2242,-1.224,-1.2243,-1.225,-1.2252,-1.2253,-1.2263,-1.2261,-1.2264,-1.2269,-1.2272,-1.2273,-1.2274,-1.2277,-1.2278,-1.2265,-1.2265,-1.2265,0,-1.2228,-1.2234,-1.2232,-1.2237,-1.2238,-1.2236,-1.2241,-1.2242,-1.2246,-1.2247,-1.2245,-1.2252,-1.2254,-1.2261,-1.2263,-1.2265,-1.2266,-1.2264,-1.2273,-1.2274,-1.2275,-1.2277,-1.2278,-1.2265,-1.2265,-1.2265,-1.2265,0,-1.224,-1.2243,-1.2247,-1.225,-1.2252,-1.2257,-1.2256,-1.2259,-1.2258,-1.2258,-1.2263,-1.2265,-1.2268,-1.227,-1.2269,-1.2276,-1.2275,-1.2273,-1.2269,-1.2276,-1.2278,-1.2279,-1.2266,-1.2266,-1.2265,-1.2265,0,0,-1.2254,-1.2255,-1.2256,-1.2257,-1.2259,-1.2262,-1.2266,-1.2269,-1.227,-1.2273,-1.2276,-1.2281,-1.2279,-1.2281,-1.228,-1.2283,-1.229,-1.2281,-1.2281,-1.2282,-1.2297,-1.2298,-1.2299,-1.2289,-1.2289,-1.2289,-1.2296,0,-1.2263,-1.227,-1.2269,-1.2276,-1.2279,-1.2276,-1.2279,-1.2281,-1.2281,-1.2283,-1.2284,-1.2287,-1.2284,-1.2285,-1.2288,-1.2288,-1.2293,-1.2288,-1.2291,-1.2291,-1.229,-1.23,-1.2302,-1.2309,-1.2297,-1.2297,-1.2297,0,-1.2275,-1.2277,-1.2284,-1.2284,-1.2285,-1.2289,-1.2291,-1.2293,-1.2295,-1.2294,-1.2296,-1.2295,-1.2299,-1.2295,-1.23,-1.2297,-1.2298,-1.2299,-1.2299,-1.2299,-1.2295,-1.23,-1.2311,-1.2312,-1.2299,-1.2299,-1.2299,0,-1.2283,-1.2288,-1.2292,-1.2293,-1.2294,-1.2296,-1.2296,-1.2297,-1.2299,-1.2301,-1.2302,-1.2304,-1.2305,-1.2307,-1.2307,-1.2304,-1.2312,-1.2308,-1.2311,-1.2311,-1.2313,-1.2313,-1.2323,-1.2315,-1.2315,-1.2315,-1.2315,0,-1.2293,-1.2297,-1.2296,-1.2298,-1.2303,-1.2301,-1.2306,-1.2306,-1.2307,-1.2309,-1.2307,-1.231,-1.2309,-1.2311,-1.231,-1.2314,-1.2315,-1.2315,-1.2315,-1.2315,-1.2315,-1.2315,-1.2315,-1.2315,-1.2315,-1.2315,-1.2315,0,-1.2303,-1.2302,-1.2307,-1.2307,-1.2307,-1.231,-1.231,-1.2313,-1.2312,-1.2315,-1.2316,-1.2316,-1.2318,-1.2317,-1.2321,-1.232,-1.2325,-1.2324,-1.2324,-1.2324,-1.2327,-1.2326,-1.2338,-1.2339,-1.233,-1.233,-1.233,0,-1.2309,-1.2312,-1.2313,-1.2314,-1.2314,-1.2317,-1.2318,-1.2316,-1.2318,-1.2319,-1.2321,-1.2323,-1.2325,-1.2329,-1.2329,-1.2331,-1.2331,-1.2334,-1.2331,-1.2331,-1.233,-1.2329,-1.2329,-1.2335,-1.2335,-1.2335,-1.2335,0,-1.232,-1.2319,-1.2321,-1.2323,-1.2324,-1.2325,-1.2326,-1.2327,-1.2326,-1.2328,-1.233,-1.2331,-1.2334,-1.2336,-1.2338,-1.2338,-1.2336,-1.2336,-1.2337,-1.2337,-1.2337,-1.2336,-1.2326,-1.2336,-1.2336,-1.2336,-1.2336,-1.2336,-1.2328,-1.233,-1.233,-1.2332,-1.2333,-1.2333,-1.2335,-1.2335,-1.2337,-1.2338,-1.2338,-1.234,-1.2341,-1.2343,-1.2343,-1.2345,-1.2344,-1.2345,-1.2345,-1.2346,-1.2346,-1.2337,-1.2346,-1.2346,-1.2346,-1.2346,-1.2346,0,-1.2338,-1.2338,-1.234,-1.2341,-1.2342,-1.234,-1.2341,-1.2342,-1.2344,-1.2345,-1.2346,-1.2348,-1.235,-1.235,-1.2352,-1.2353,-1.2352,-1.2354,-1.2353,-1.2353,-1.2347,-1.2346,-1.2354,-1.2354,-1.2354,-1.2354,-1.2354,-1.2354,-1.2343,-1.2347,-1.2346,-1.2349,-1.2349,-1.2351,-1.2352,-1.2352,-1.2352,-1.2355,-1.2356,-1.2356,-1.2356,-1.2358,-1.2359,-1.2359,-1.236,-1.2361,-1.2361,-1.2355,-1.2354,-1.2353,-1.2352,-1.2361,-1.2361,-1.2367,-1.2367,-1.2367]},{"header":{"parameterUnit":"m.s-1","parameterCategory":1,"la1":30.2991,"la2":30.254,"lo1":-89.0895,"lo2":-89.0444,"dy":0.0017,"dx":0.0017,"nx":28,"ny":28,"refTime":"2023-09-08T09:00:00:Z","depth":0,"parameterNumber":3,"parameterNumberName":"V-component_of_WINDS"},"data":[0,0,0,0,0,0,0,0,0,0,0,0,0,0,0,0,0,0,0,0,0,0,0,0,0,0,0,0,0,0,0,0,0,0,0,0,0,0,0,0,0,0,0,0,0,0,0,0,0,0,0,0,0,0,0,0,0,0,-1.3677,-1.3679,0,-1.3822,-1.3824,-1.3825,-1.3914,-1.3914,-1.3915,-1.3915,-1.4063,-1.4066,-1.407,0,0,0,0,0,0,0,0,0,0,0,0,0,-1.3477,-1.348,-1.3677,-1.3679,-1.368,-1.3822,-1.3824,-1.3826,-1.3914,-1.3914,-1.3915,-1.3915,-1.4062,-1.4066,-1.407,0,0,0,0,0,0,0,0,0,0,0,0,0,-1.3587,-1.3481,-1.3677,-1.3741,-1.3749,-1.3821,-1.3824,-1.3826,-1.3913,-1.3914,-1.3915,-1.3915,-1.4061,-1.4066,-1.4071,-1.409,0,0,-1.4087,-1.4089,0,0,0,0,0,0,0,0,-1.3581,-1.3594,-1.373,-1.3737,-1.3745,-1.385,-1.3808,-1.3915,-1.3913,-1.3851,-1.3915,-1.3916,-1.3992,-1.4003,-1.4028,-1.4097,-1.4103,-1.4088,-1.4091,-1.4093,-1.4094,0,0,0,0,0,0,0,-1.3573,-1.3589,-1.3734,-1.3732,-1.3741,-1.3764,-1.378,-1.3828,-1.3916,-1.3856,-1.3863,-1.3879,-1.3996,-1.4023,-1.4033,-1.4106,-1.4087,-1.4092,-1.4095,-1.4097,-1.4198,-1.4198,0,0,0,0,0,0,-1.3555,-1.3582,-1.373,-1.3739,-1.3663,-1.3767,-1.3785,-1.3816,-1.3915,-1.3931,-1.3878,-1.3883,-1.4014,-1.4026,-1.4038,-1.4067,-1.4093,-1.4098,-1.4101,-1.4199,-1.4198,-1.4198,0,0,0,0,0,0,-1.355,-1.3567,-1.3724,-1.3662,-1.3684,-1.3769,-1.3804,-1.3818,-1.3846,-1.3932,-1.3948,-1.389,-1.4015,-1.4031,-1.4077,-1.4074,-1.41,-1.4105,-1.4199,-1.4198,-1.4198,-1.4125,0,0,0,0,0,0,-1.3544,-1.3565,-1.3573,-1.3662,-1.3687,-1.3759,-1.3803,-1.3821,-1.3855,-1.3862,-1.3947,-1.3962,-1.4017,-1.4068,-1.4082,-1.4081,-1.4109,-1.42,-1.4199,-1.4198,-1.4128,-1.4122,-1.4117,0,0,0,0,0,-1.3537,-1.3547,-1.3573,-1.359,-1.3698,-1.3759,-1.3773,-1.3836,-1.3854,-1.3863,-1.3919,-1.3959,-1.4072,-1.4072,-1.4088,-1.4089,-1.42,-1.4199,-1.4198,-1.4131,-1.4123,-1.4117,0,0,0,0,0,0,-1.3455,-1.3559,-1.359,-1.3628,-1.3684,-1.3774,-1.3787,-1.3826,-1.3878,-1.3882,-1.3958,-1.3976,-1.4015,-1.4057,-1.4056,-1.4114,-1.4141,-1.4143,-1.4084,-1.4078,-1.4072,-1.4061,-1.4114,0,0,0,0,0,-1.3442,-1.3482,-1.3571,-1.3597,-1.3624,-1.37,-1.3729,-1.3773,-1.3833,-1.3857,-1.3917,-1.3974,-1.4023,-1.4053,-1.4102,-1.4136,-1.4155,-1.4144,-1.4138,-1.4133,-1.4134,-1.4155,-1.4151,-1.4194,-1.4194,-1.4194,0,0,-1.3414,-1.3476,-1.3497,-1.3582,-1.363,-1.3671,-1.3719,-1.376,-1.3791,-1.3864,-1.391,-1.3956,-1.4025,-1.4065,-1.4085,-1.4101,-1.4127,-1.4132,-1.4127,-1.4131,-1.4153,-1.4149,-1.4145,-1.4193,-1.4193,-1.4193,0,0,-1.3384,-1.3435,-1.3462,-1.351,-1.3583,-1.3634,-1.3641,-1.3725,-1.3758,-1.3806,-1.3862,-1.39,-1.3982,-1.4029,-1.4064,-1.4054,-1.4093,-1.4068,-1.4037,-1.4057,-1.4053,-1.4051,-1.4047,-1.4044,-1.4068,-1.4068,-1.4068,0,-1.334,-1.3404,-1.3471,-1.3509,-1.3545,-1.3613,-1.3641,-1.3685,-1.3769,-1.3793,-1.381,-1.3915,-1.3966,-1.4018,-1.4015,-1.4041,-1.4051,-1.4057,-1.4048,-1.4047,-1.4045,-1.4042,-1.404,-1.4064,-1.4065,-1.4065,-1.4066,0,-1.3346,-1.3389,-1.3402,-1.3483,-1.3521,-1.3553,-1.3626,-1.3656,-1.3697,-1.3746,-1.3795,-1.386,-1.3924,-1.394,-1.398,-1.3997,-1.4005,-1.4034,-1.4063,-1.4036,-1.4034,-1.4034,-1.4059,-1.4061,-1.4062,-1.4063,0,0,-1.3267,-1.3386,-1.3389,-1.3427,-1.3513,-1.3548,-1.3584,-1.3647,-1.3671,-1.3728,-1.376,-1.3829,-1.3857,-1.3896,-1.3942,-1.3959,-1.3947,-1.3987,-1.399,-1.3977,-1.397,-1.3946,-1.3944,-1.3974,-1.3974,-1.3974,-1.3964,0,-1.3249,-1.3317,-1.3379,-1.3425,-1.3465,-1.3532,-1.3564,-1.362,-1.3668,-1.3709,-1.3763,-1.3809,-1.3843,-1.3867,-1.3888,-1.3944,-1.3946,-1.3946,-1.4004,-1.4006,-1.3983,-1.3943,-1.3918,-1.3905,-1.3964,-1.3964,-1.3964,0,-1.3237,-1.3291,-1.334,-1.3423,-1.3442,-1.3469,-1.3532,-1.3572,-1.3637,-1.3671,-1.3715,-1.3764,-1.3806,-1.3832,-1.389,-1.3888,-1.3917,-1.3948,-1.3949,-1.3956,-1.3982,-1.3948,-1.3903,-1.39,-1.3964,-1.3964,-1.3964,0,-1.3173,-1.3258,-1.3299,-1.3329,-1.3427,-1.3445,-1.3486,-1.3553,-1.3587,-1.3642,-1.3665,-1.3725,-1.3757,-1.3802,-1.3866,-1.3879,-1.3918,-1.3949,-1.3947,-1.3945,-1.395,-1.3949,-1.3908,-1.397,-1.397,-1.397,-1.397,0,-1.3145,-1.3172,-1.3271,-1.3296,-1.3329,-1.3401,-1.3432,-1.348,-1.3539,-1.3574,-1.3636,-1.3668,-1.3751,-1.3793,-1.3844,-1.3885,-1.3899,-1.3927,-1.394,-1.3921,-1.3917,-1.3939,-1.3941,-1.397,-1.397,-1.397,-1.397,0,-1.3078,-1.3146,-1.3194,-1.3284,-1.3307,-1.3327,-1.3403,-1.343,-1.3482,-1.3526,-1.3541,-1.3622,-1.3675,-1.3744,-1.3819,-1.3853,-1.3887,-1.3908,-1.3865,-1.3872,-1.3866,-1.3865,-1.3837,-1.3836,-1.3899,-1.3899,-1.3898,0,-1.3055,-1.3078,-1.317,-1.3198,-1.3238,-1.3282,-1.3318,-1.3391,-1.3425,-1.3502,-1.352,-1.3578,-1.3628,-1.3709,-1.3775,-1.3833,-1.3855,-1.3841,-1.3864,-1.3844,-1.3854,-1.3851,-1.3853,-1.3834,-1.3833,-1.3833,-1.3832,0,-1.3007,-1.304,-1.3088,-1.3148,-1.3189,-1.324,-1.3293,-1.3313,-1.3398,-1.3433,-1.3488,-1.3527,-1.3604,-1.366,-1.3727,-1.3771,-1.3815,-1.3825,-1.3827,-1.3807,-1.378,-1.3794,-1.3848,-1.3824,-1.3825,-1.3826,-1.3826,-1.3826,-1.2961,-1.2984,-1.3053,-1.3105,-1.3153,-1.3202,-1.3232,-1.3288,-1.3335,-1.3403,-1.3444,-1.3497,-1.3564,-1.3658,-1.37,-1.3743,-1.376,-1.3764,-1.3765,-1.3764,-1.3757,-1.3775,-1.3756,-1.3756,-1.3756,-1.3757,-1.3757,0,-1.2915,-1.2963,-1.301,-1.3083,-1.3124,-1.3164,-1.3226,-1.3258,-1.3304,-1.3363,-1.3411,-1.3474,-1.353,-1.3601,-1.3662,-1.3683,-1.3705,-1.3696,-1.3694,-1.3704,-1.3739,-1.373,-1.3677,-1.3677,-1.3677,-1.3677,-1.3677,-1.3677,-1.2896,-1.2937,-1.2978,-1.3044,-1.3093,-1.3145,-1.3177,-1.3223,-1.327,-1.3338,-1.3385,-1.3431,-1.3495,-1.3561,-1.3614,-1.3634,-1.3653,-1.3638,-1.3663,-1.3694,-1.3701,-1.3708,-1.37,-1.3642,-1.3641,-1.3624,-1.3624,-1.3624]}]]